Regional Weather Roundup
Issued by NWS Goodland, KS

Home | Current Version | Previous Version | Text Only | Print | Product List | Glossary On
Versions: 1 2 3 4 5 6 7 8 9 10 11 12 13 14 15 16 17 18 19 20 21 22 23 24 25 26 27 28 29 30 31 32 33 34 35 36 37 38 39 40 41 42 43 44 45 46 47 48 49 50
000
ASUS43 KGLD 052308
RWRGLD

GOODLAND FORECAST AREA HOURLY WEATHER ROUNDUP
NATIONAL WEATHER SERVICE GOODLAND KS
500 PM MDT SUN JUL 05 2015

...OFFICIAL OBSERVATIONS...

CITY           SKY/WX    TMP DP  RH WIND       PRES   REMARKS
GOODLAND KS    PTSUNNY   96  51  21 S17       29.79S
HILL CITY KS   MOSUNNY  102  59  24 S20G31    29.74F HX 102
IMPERIAL NEB   PTSUNNY  101  51  18 S9        29.74F
MCCOOK NEB     PTSUNNY   95  56  26 SE22G29   29.70F
AKRON CO       CLOUDY    91  52  26 S9G23     29.86F
BURLINGTON CO  PTSUNNY   97  51  21 SW13      29.84F
LIMON CO       PTSUNNY   85  49  28 SW10      29.94S
$$

...UNOFFICIAL OBSERVATIONS...

CITY           SKY/WX    TMP DP  RH WIND       PRES   REMARKS
COLBY KS       SUNNY    100  57  23 S18G25    29.77F
GOVE KS          N/A     96  32  10 MISG        N/A
NORTON KS      SUNNY     95  52  23 S16G24    29.72F
SHARON SPRINGS   N/A     98  59  27 S24G41      N/A
KIT CARSON CO    N/A     97  54  23 MISG        N/A
YUMA CO          N/A     95  52  23 S6          N/A
$$


USA.gov is the U.S. government's official web portal to all federal, state and local government web resources and services.